P/2020 X1 ( ATLAS )

Japanese version
Home page
Updated on January 6, 2021

---------------------------------------------------------------------

* Profile

Discovery Date December 4, 2020
Magnitude 18.9 mag
Discoverer Asteroid Terrestrial-Impact Last Alert System (ATLAS) search program

* Pictures

* Orbital Elements

Epoch 2020 Aug. 19.0 TT = JDT 2459080.5                                         
T 2020 Aug. 1.31597 TT                                  Veres                   
q   2.8894078            (2000.0)            P               Q                  
n   0.10289608     Peri.  326.17293     +0.85733620     -0.27659196             
a   4.5102799      Node    56.06637     +0.50525866     +0.61343436             
e   0.3593728      Incl.   31.55055     -0.09842926     +0.73972641             
P   9.58                                                                        
From 63 observations 2020 Dec. 1-8, mean residual 0".5.                         

* Magnitudes Graph

        m1 = 12.0 + 5 log d + 10.0 log r

---------------------------------------------------------------------

The orbital elements are published on M.P.E.C. 2020-X71.
The magnitudes graphs are made with Comet for Windows.

---------------------------------------------------------------------

Copyright(C) Seiichi Yoshida (comet@aerith.net). All rights reserved.